sat.trackr.live / text

‹ back to catalog

STARLINK-30398

NORAD 57815 · 2023-138H

PAYLOAD ACTIVE UNKNOWN

§ Identity

Operator
Country
US
Launch date
2023-09-09
Launch site
AFETR
Launch vehicle
Mass (kg)
RCS (m²)

Purposes: comms

External: N2YO · Heavens-Above · Gunter

§ Orbital elements

Epoch: 2026-05-24T10:57:52.433568Z

Period
94.27 min
Inclination
43.0034°
Eccentricity
0.0001563
Mean motion
15.27581030 rev/d
Perigee alt
482.0 km
Apogee alt
484.1 km
Semi-major
6,861.2 km
B*
6.2863e-5
RAAN
166.4868°
Arg perigee
276.5817°
Mean anomaly
83.4857°
Rev number
15,022

§ Raw data

STARLINK-303981 57815U 23138H   26144.45685687  .00001468  00000+0  62863-4 0  99962 57815  43.0034 166.4868 0001563 276.5817  83.4857 15.27581030150229

JSON: /api/v1/satellites/57815 · /tle

For live sub-satellite position, see the globe view (requires WebGL).

§ Visibility from observer

Set your observer location to see the next 7 days of passes ≥ 10°. The values pass through the URL so the page stays shareable.

No JS? Fill the form by hand. The geolocation button needs JavaScript.